Radiation Dose at Monitoring Post of Fukushima Daini Nuclear Power Station
Date,Time,MP-1(microSv/h),MP-2(microSv/h),MP-3(microSv/h),MP-4(microSv/h),MP-5(microSv/h),MP-6(microSv/h),MP-7(microSv/h),Wind Direction,Wind Velocity(m/s),Rain
2023/05/09,00:00,0.144,0.130,0.205,0.202,0.206,0.115,0.074,northwest,5.6,No
2023/05/09,00:10,0.144,0.130,0.206,0.202,0.207,0.115,0.075,north-northwest,5.1,No
2023/05/09,00:20,0.144,0.130,0.206,0.203,0.208,0.115,0.074,northwest,5.5,No
2023/05/09,00:30,0.144,0.130,0.206,0.201,0.206,0.115,0.075,northwest,5.1,No
2023/05/09,00:40,0.143,0.130,0.205,0.202,0.206,0.115,0.074,northwest,5.3,No
2023/05/09,00:50,0.144,0.130,0.205,0.201,0.206,0.114,0.074,northwest,5.1,No
2023/05/09,01:00,0.144,0.129,0.206,0.201,0.207,0.116,0.075,northwest,5.8,No
2023/05/09,01:10,0.144,0.129,0.205,0.201,0.207,0.114,0.075,northwest,7.0,No
2023/05/09,01:20,0.144,0.130,0.206,0.202,0.208,0.115,0.074,northwest,7.2,No
2023/05/09,01:30,0.143,0.130,0.206,0.201,0.207,0.115,0.075,northwest,7.1,No
2023/05/09,01:40,0.144,0.130,0.207,0.202,0.207,0.115,0.075,northwest,7.4,No
2023/05/09,01:50,0.143,0.131,0.205,0.202,0.206,0.114,0.074,northwest,6.9,No
2023/05/09,02:00,0.143,0.131,0.206,0.201,0.208,0.114,0.075,northwest,6.4,No
2023/05/09,02:10,-,-,-,-,-,-,-,-,-,-
2023/05/09,02:20,0.145,0.130,0.206,0.201,0.206,0.115,0.075,northwest,6.4,No
2023/05/09,02:30,0.144,0.130,0.205,0.202,0.207,0.115,0.074,northwest,6.0,No
2023/05/09,02:40,0.143,0.130,0.206,0.202,0.207,0.115,0.074,northwest,6.1,No
2023/05/09,02:50,0.144,0.130,0.205,0.202,0.207,0.114,0.074,north-northwest,6.5,No
2023/05/09,03:00,0.143,0.130,0.206,0.202,0.206,0.114,0.074,northwest,5.9,No
2023/05/09,03:10,0.143,0.129,0.205,0.202,0.207,0.115,0.075,northwest,5.8,No
2023/05/09,03:20,0.144,0.131,0.205,0.203,0.207,0.114,0.074,northwest,5.6,No
2023/05/09,03:30,0.144,0.129,0.205,0.201,0.208,0.114,0.074,northwest,5.8,No
2023/05/09,03:40,0.143,0.130,0.205,0.202,0.206,0.114,0.074,northwest,5.3,No
2023/05/09,03:50,0.143,0.131,0.206,0.202,0.206,0.115,0.075,northwest,4.9,No
2023/05/09,04:00,0.144,0.129,0.205,0.202,0.207,0.115,0.075,northwest,3.9,No
2023/05/09,04:10,0.143,0.129,0.206,0.200,0.206,0.115,0.075,north-northwest,3.7,No
2023/05/09,04:20,0.142,0.130,0.205,0.201,0.208,0.115,0.075,north-northwest,3.9,No
2023/05/09,04:30,0.144,0.130,0.206,0.201,0.206,0.115,0.073,northwest,4.0,No
2023/05/09,04:40,0.144,0.130,0.205,0.202,0.206,0.114,0.075,north-northwest,4.3,No
2023/05/09,04:50,0.143,0.130,0.206,0.202,0.206,0.115,0.074,north-northwest,4.4,No
2023/05/09,05:00,0.145,0.130,0.205,0.201,0.206,0.115,0.074,northwest,4.1,No
2023/05/09,05:10,0.144,0.130,0.206,0.201,0.206,0.114,0.075,north-northwest,3.9,No
2023/05/09,05:20,0.144,0.129,0.206,0.202,0.206,0.115,0.075,north-northwest,3.9,No
2023/05/09,05:30,0.144,0.130,0.205,0.202,0.205,0.115,0.074,north-northwest,4.4,No
2023/05/09,05:40,0.144,0.131,0.205,0.202,0.206,0.115,0.074,north-northwest,4.7,No
2023/05/09,05:50,0.144,0.130,0.206,0.203,0.206,0.115,0.074,north-northwest,5.4,No
2023/05/09,06:00,0.144,0.129,0.205,0.202,0.207,0.115,0.075,north-northwest,4.6,No
2023/05/09,06:10,0.144,0.130,0.205,0.201,0.207,0.114,0.074,north-northwest,4.9,No
2023/05/09,06:20,0.144,0.130,0.205,0.201,0.207,0.115,0.074,north-northwest,4.2,No
2023/05/09,06:30,0.144,0.130,0.206,0.201,0.205,0.115,0.075,northwest,4.6,No
2023/05/09,06:40,0.143,0.130,0.206,0.202,0.207,0.115,0.074,north-northwest,4.1,No
2023/05/09,06:50,0.143,0.129,0.206,0.201,0.206,0.116,0.074,north-northwest,3.2,No
2023/05/09,07:00,0.144,0.130,0.205,0.202,0.206,0.115,0.074,north-northwest,2.1,No
2023/05/09,07:10,0.144,0.129,0.204,0.201,0.207,0.115,0.074,north-northwest,2.3,No
2023/05/09,07:20,0.144,0.129,0.205,0.201,0.205,0.115,0.074,north-northwest,1.7,No
2023/05/09,07:30,0.144,0.130,0.203,0.201,0.208,0.115,0.074,north,1.1,No
2023/05/09,07:40,0.143,0.130,0.205,0.201,0.207,0.115,0.074,north-northeast,0.9,No
2023/05/09,07:50,0.143,0.129,0.203,0.201,0.208,0.115,0.074,north-northwest,0.8,No
2023/05/09,08:00,0.145,0.130,0.205,0.201,0.207,0.115,0.074,northeast,1.1,No
2023/05/09,08:10,0.144,0.129,0.203,0.200,0.206,0.114,0.074,east-northeast,1.3,No
2023/05/09,08:20,0.143,0.129,0.205,0.202,0.207,0.116,0.075,northeast,1.9,No
2023/05/09,08:30,0.144,0.130,0.204,0.200,0.206,0.114,0.075,northeast,1.3,No
2023/05/09,08:40,0.144,0.129,0.205,0.203,0.207,0.114,0.073,east-northeast,0.8,No
2023/05/09,08:50,0.143,0.130,0.205,0.201,0.206,0.114,0.074,east,1.8,No
2023/05/09,09:00,0.143,0.129,0.205,0.200,0.205,0.115,0.074,east-southeast,1.7,No
2023/05/09,09:10,0.143,0.129,0.206,0.203,0.206,0.115,0.075,east-southeast,1.4,No
2023/05/09,09:20,0.143,0.129,0.204,0.201,0.206,0.114,0.074,east-southeast,1.5,No
2023/05/09,09:30,0.145,0.130,0.204,0.202,0.207,0.116,0.075,east-southeast,1.8,No
2023/05/09,09:40,0.143,0.129,0.207,0.203,0.207,0.115,0.075,east,2.0,No
2023/05/09,09:50,0.144,0.129,0.206,0.200,0.205,0.115,0.075,east,2.0,No
2023/05/09,10:00,0.144,0.130,0.206,0.203,0.209,0.116,0.075,east-southeast,2.4,No
2023/05/09,10:10,0.144,0.129,0.207,0.203,0.205,0.114,0.075,east,2.4,No
2023/05/09,10:20,0.144,0.130,0.205,0.200,0.207,0.115,0.074,east-southeast,2.6,No
2023/05/09,10:30,0.143,0.129,0.206,0.204,0.208,0.115,0.075,east,2.8,No
2023/05/09,10:40,0.144,0.129,0.206,0.203,0.207,0.115,0.075,east,3.1,No
2023/05/09,10:50,0.142,0.129,0.205,0.202,0.208,0.115,0.076,east-southeast,2.5,No
2023/05/09,11:00,0.144,0.131,0.207,0.204,0.207,0.116,0.074,east-southeast,3.1,No
2023/05/09,11:10,0.144,0.130,0.206,0.202,0.209,0.116,0.075,east-southeast,3.0,No
2023/05/09,11:20,0.142,0.130,0.205,0.203,0.208,0.115,0.075,east-southeast,3.3,No
2023/05/09,11:30,0.144,0.130,0.206,0.205,0.206,0.115,0.074,east-southeast,4.1,No
2023/05/09,11:40,0.143,0.130,0.206,0.202,0.209,0.116,0.075,east-southeast,3.9,No
2023/05/09,11:50,0.145,0.130,0.207,0.204,0.206,0.116,0.075,east-southeast,3.1,No
2023/05/09,12:00,0.143,0.129,0.206,0.203,0.208,0.116,0.074,east-southeast,3.6,No
2023/05/09,12:10,0.144,0.131,0.205,0.203,0.208,0.116,0.074,east-southeast,3.3,No
2023/05/09,12:20,0.145,0.129,0.207,0.204,0.206,0.115,0.074,east-southeast,3.4,No
2023/05/09,12:30,0.143,0.131,0.206,0.202,0.211,0.116,0.075,southeast,3.3,No
2023/05/09,12:40,0.144,0.130,0.206,0.203,0.206,0.115,0.074,southeast,3.5,No
2023/05/09,12:50,0.145,0.130,0.207,0.203,0.207,0.116,0.074,southeast,3.3,No
2023/05/09,13:00,0.144,0.131,0.206,0.202,0.210,0.115,0.075,southeast,3.9,No
2023/05/09,13:10,0.143,0.130,0.208,0.204,0.207,0.115,0.074,southeast,3.6,No
2023/05/09,13:20,0.145,0.130,0.207,0.204,0.207,0.116,0.075,southeast,3.0,No
2023/05/09,13:30,-,-,-,-,-,-,-,-,-,-
2023/05/09,13:40,0.143,0.130,0.208,0.205,0.207,0.116,0.074,southeast,3.0,No
2023/05/09,13:50,0.145,0.130,0.206,0.204,0.207,0.115,0.075,southeast,2.6,No
2023/05/09,14:00,0.144,0.130,0.208,0.202,0.210,0.115,0.074,southeast,3.0,No
2023/05/09,14:10,0.144,0.130,0.207,0.205,0.207,0.116,0.074,southeast,3.0,No
2023/05/09,14:20,0.145,0.129,0.208,0.203,0.207,0.116,0.075,south-southeast,3.2,No
2023/05/09,14:30,0.145,0.131,0.207,0.203,0.209,0.115,0.074,southeast,2.7,No
2023/05/09,14:40,0.143,0.131,0.206,0.205,0.207,0.116,0.075,southeast,3.3,No
2023/05/09,14:50,0.146,0.131,0.209,0.202,0.207,0.116,0.074,southeast,3.3,No
2023/05/09,15:00,0.145,0.131,0.208,0.205,0.209,0.115,0.074,south-southeast,3.3,No
2023/05/09,15:10,-,-,-,-,-,-,-,-,-,-
2023/05/09,15:20,0.144,0.131,0.209,0.203,0.206,0.115,0.074,south-southeast,3.8,No
2023/05/09,15:30,0.145,0.130,0.207,0.204,0.210,0.115,0.075,south-southeast,4.0,No
2023/05/09,15:40,0.143,0.131,0.209,0.204,0.208,0.116,0.075,south-southeast,3.7,No
2023/05/09,15:50,0.144,0.130,0.208,0.205,0.206,0.115,0.075,south-southeast,3.6,No
2023/05/09,16:00,0.144,0.130,0.208,0.205,0.209,0.117,0.075,south-southeast,3.8,No
2023/05/09,16:10,0.143,0.130,0.208,0.206,0.209,0.116,0.075,south-southeast,3.7,No
2023/05/09,16:20,-,-,-,-,-,-,-,-,-,-
2023/05/09,16:30,0.144,0.131,0.210,0.206,0.209,0.117,0.075,south-southeast,2.8,No
2023/05/09,16:40,0.144,0.131,0.208,0.204,0.209,0.116,0.075,southeast,2.7,No
2023/05/09,16:50,0.145,0.131,0.209,0.205,0.207,0.116,0.075,south-southeast,2.9,No
2023/05/09,17:00,0.144,0.131,0.208,0.206,0.211,0.116,0.075,south-southeast,3.3,No
2023/05/09,17:10,0.146,0.130,0.209,0.204,0.208,0.117,0.075,south-southeast,3.1,No
2023/05/09,17:20,0.145,0.131,0.209,0.205,0.208,0.117,0.075,southeast,2.7,No
2023/05/09,17:30,0.146,0.131,0.209,0.205,0.210,0.116,0.075,south-southeast,2.7,No
2023/05/09,17:40,0.145,0.130,0.209,0.207,0.209,0.116,0.075,south-southeast,2.6,No
2023/05/09,17:50,0.145,0.131,0.210,0.205,0.210,0.117,0.075,south-southeast,3.0,No
2023/05/09,18:00,0.145,0.131,0.208,0.204,0.210,0.116,0.074,south-southeast,3.0,No
2023/05/09,18:10,0.144,0.132,0.208,0.204,0.209,0.116,0.075,south-southeast,3.0,No
2023/05/09,18:20,0.145,0.131,0.208,0.204,0.209,0.116,0.075,south-southeast,2.7,No
2023/05/09,18:30,0.144,0.131,0.209,0.206,0.210,0.115,0.075,south,3.8,No
2023/05/09,18:40,0.146,0.130,0.209,0.204,0.210,0.116,0.075,south,3.0,No
2023/05/09,18:50,0.144,0.131,0.208,0.205,0.209,0.117,0.075,south,2.9,No
2023/05/09,19:00,0.145,0.131,0.209,0.206,0.209,0.115,0.075,south,2.6,No
2023/05/09,19:10,0.145,0.131,0.210,0.205,0.209,0.117,0.075,south,2.6,No
2023/05/09,19:20,0.145,0.131,0.209,0.204,0.210,0.117,0.075,south-southwest,2.3,No
2023/05/09,19:30,0.145,0.131,0.209,0.206,0.210,0.117,0.076,south,1.8,No
2023/05/09,19:40,0.145,0.132,0.210,0.205,0.210,0.117,0.075,south,1.5,No
2023/05/09,19:50,0.145,0.132,0.209,0.205,0.209,0.117,0.075,south,2.2,No
2023/05/09,20:00,0.145,0.131,0.208,0.206,0.208,0.117,0.075,south-southwest,3.6,No
2023/05/09,20:10,0.145,0.131,0.209,0.205,0.209,0.116,0.075,south-southwest,3.2,No
2023/05/09,20:20,0.145,0.131,0.209,0.205,0.211,0.116,0.074,south-southwest,3.0,No
2023/05/09,20:30,0.146,0.131,0.208,0.206,0.209,0.116,0.075,south-southwest,3.5,No
2023/05/09,20:40,0.145,0.130,0.207,0.206,0.209,0.117,0.075,south-southwest,3.6,No
2023/05/09,20:50,0.146,0.133,0.209,0.206,0.210,0.117,0.075,south,3.8,No
2023/05/09,21:00,0.145,0.132,0.210,0.205,0.209,0.117,0.075,south,3.4,No
2023/05/09,21:10,0.145,0.132,0.210,0.205,0.210,0.116,0.075,south-southwest,3.3,No
2023/05/09,21:20,0.145,0.132,0.210,0.205,0.210,0.117,0.075,south-southwest,3.4,No
2023/05/09,21:30,0.144,0.131,0.208,0.206,0.208,0.117,0.075,south-southwest,3.6,No
2023/05/09,21:40,0.145,0.131,0.209,0.205,0.210,0.116,0.075,south-southwest,3.5,No
2023/05/09,21:50,0.146,0.131,0.209,0.206,0.209,0.117,0.074,south,3.7,No
2023/05/09,22:00,0.146,0.131,0.209,0.205,0.209,0.118,0.075,south-southwest,3.6,No
2023/05/09,22:10,0.145,0.131,0.210,0.205,0.210,0.117,0.075,south-southwest,3.4,No
2023/05/09,22:20,0.146,0.132,0.209,0.206,0.208,0.117,0.075,south-southwest,3.7,No
2023/05/09,22:30,0.145,0.132,0.209,0.205,0.209,0.117,0.074,south-southwest,3.5,No
2023/05/09,22:40,0.145,0.131,0.209,0.206,0.210,0.117,0.075,south-southwest,3.8,No
2023/05/09,22:50,0.146,0.131,0.209,0.206,0.209,0.116,0.076,south-southwest,4.0,No
2023/05/09,23:00,0.145,0.131,0.209,0.205,0.210,0.116,0.075,south-southwest,4.2,No
2023/05/09,23:10,0.145,0.131,0.209,0.205,0.209,0.117,0.075,south-southwest,4.1,No
2023/05/09,23:20,0.146,0.131,0.209,0.206,0.210,0.116,0.075,southwest,4.2,No
2023/05/09,23:30,0.144,0.132,0.209,0.205,0.209,0.117,0.075,south-southwest,3.7,No
2023/05/09,23:40,0.145,0.132,0.210,0.205,0.209,0.116,0.075,south-southwest,3.8,No
2023/05/09,23:50,0.146,0.131,0.209,0.205,0.209,0.116,0.075,south-southwest,4.3,No
